Flag for U.S.A. Weather past 2 weeks in Miami, Florida, U.S.A.

Now
62 °F

Clear.


Feels Like: 62 °F
Forecast: 61 / 76 °F
Wind: 3 mph from Northwest

Location: Miami International Airport

Current Time: Dec 19, 2014 at 5:56:40 AM

Latest Report: Dec 19, 2014 at 4:53 AM


Visibility: 10 mi

Pressure: 30.07 "Hg

Humidity: 73%

Dew point: 53 °F

Location of MiamiLocation

Historic Weather in Miami — Graph

°F

Miami temperature yesterday

Maximum temperature yesterday: 78 °F (at 12:53 PM)
Minimum temperature yesterday: 61 °F (at 4:53 AM)
Average temperature yesterday: 69 °F

Past Weeks' High & Low Weather Summary

 TemperatureHumidityPressure
High81 °F (Dec 5, 1:53 PM)93% (Dec 8, 3:53 AM)30.25 "Hg (Dec 8, 3:53 AM)
Low50 °F (Dec 11, 2:53 AM)31% (Dec 14, 1:53 PM)29.98 "Hg (Dec 9, 3:53 PM)
Average67 °F66%30.11 "Hg
* Reported Dec 4 4:53 AM — Dec 19 4:53 AM, Miami, Weather by CustomWeather, © 2014

Note: Actual official high and low records may vary slightly from our data, if they occured in-between our weather recording intervals... More about our weather records

Advertising

Miami weather history for previous 24 hours

 ConditionsComfort  
Time TempWeatherWind HumidityBarometerVisibility
4:53 AM
Dec 19
62 °FClear.3 mph73%30.07 "Hg10 mi
3:53 AM63 °FClear.3 mph68%30.07 "Hg10 mi
2:53 AM61 °FClear.No wind72%30.07 "Hg10 mi
1:53 AM63 °FClear.No wind78%30.08 "Hg10 mi
12:53 AM63 °FClear.No wind78%30.09 "Hg10 mi
11:53 PM
Dec 18
63 °FClear.No wind78%30.11 "Hg10 mi
10:53 PM65 °FClear.No wind73%30.12 "Hg10 mi
9:53 PM68 °FClear.No wind65%30.12 "Hg10 mi
8:53 PM69 °FClear.No wind70%30.11 "Hg10 mi
7:53 PM70 °FClear.No wind71%30.10 "Hg10 mi
6:53 PM71 °FClear.5 mph68%30.08 "Hg10 mi
5:53 PM72 °FPassing clouds.3 mph64%30.08 "Hg10 mi
4:53 PM76 °FPassing clouds.3 mph50%30.06 "Hg10 mi
3:53 PM78 °FPassing clouds.6 mph48%30.07 "Hg10 mi
2:53 PM78 °FPassing clouds.6 mph46%30.09 "Hg10 mi
1:53 PM77 °FPassing clouds.6 mph50%30.09 "Hg10 mi
12:53 PM78 °FScattered clouds.6 mph52%30.12 "Hg10 mi
11:53 AM74 °FPartly sunny.3 mph60%30.15 "Hg10 mi
10:53 AM75 °FPartly sunny.5 mph62%30.17 "Hg10 mi
9:53 AM72 °FScattered clouds.6 mph71%30.18 "Hg10 mi
8:53 AM70 °FPassing clouds.No wind71%30.16 "Hg10 mi
7:53 AM63 °FPassing clouds.No wind84%30.14 "Hg10 mi
6:53 AM62 °FClear.3 mph83%30.14 "Hg10 mi
5:53 AM62 °FPassing clouds.No wind80%30.13 "Hg10 mi
Weather by CustomWeather, © 2014

See weather overviewHow to use our weather pages